******************************************************************************* JPL/HORIZONS ATLAS (C/2025 N1) 2025-Dec-12 17:59:39 Rec #:90004922 (+COV) Soln.date: 2025-Dec-11_08:30:40 # obs: 758 (209 days) IAU76/J2000 helio. ecliptic osc. elements (au, days, deg., period=Julian yrs): EPOCH= 2460891.5 ! 2025-Aug-04.0000000 (TDB) RMSW= n.a. EC= 6.139433723877776 QR= 1.356418237859906 TP= 2460977.98216112 OM= 322.1566409267227 W= 128.0097228929673 IN= 175.1130926962195 A= -.2639236753959869 MA= 91.34397549863638 ADIST= 9.999999E99 PER= 9.999999E99 N= 7.269198831 ANGMOM= .053531589 DAN= -3.48268 DDN= 2.02569 L= 194.0456333 B= 3.8486516 MOID= .365134 TP= 2025-Oct-29.4821611200 Comet physical (GM= km^3/s^2; RAD= km): GM= n.a. RAD= n.a. M1= 12.5 M2= n.a. k1= 4.5 k2= n.a. PHCOF= n.a. Comet non-gravitational force model (AMRAT=m^2/kg;A1-A3=au/d^2;DT=days;R0=au): AMRAT= 0. DT= 0. A1= 4.368369102478E-8 A2= 1.595561385155E-8 A3= -5.178292989731E-9 Non-standard or simulated/proxy model: ALN= 1. NK= 0. NM= 2. NN= 0. R0= 1. COMET comments 1: soln ref.= JPL#42, data arc: 2025-05-15 to 2025-12-10 2: k1=4.5;Nongravitational accels. using g(r) = (1 au/ r)^2 for CO2 ******************************************************************************* ******************************************************************************* Ephemeris / WWW_USER Fri Dec 12 17:59:39 2025 Pasadena, USA / Horizons ******************************************************************************* Target body name: ATLAS (C/2025 N1) {source: JPL#42} Center body name: Earth (399) {source: DE441} Center-site name: GEOCENTRIC ******************************************************************************* Start time : A.D. 2025-Oct-21 05:10:00.0000 UT Stop time : A.D. 2025-Oct-21 06:10:00.0000 UT Step-size : 10 minutes ******************************************************************************* Target pole/equ : undefined Target radii : undefined Center geodetic : 0.0, 0.0, -6378.137 {E-lon(deg),Lat(deg),Alt(km)} Center cylindric: 0.0, 0.0, 0.0 {E-lon(deg),Dxy(km),Dz(km)} Center pole/equ : ITRF93 {East-longitude positive} Center radii : 6378.137, 6378.137, 6356.752 km {Equator_a, b, pole_c} Target primary : Sun Vis. interferer : MOON (R_eq= 1737.400) km {source: DE441} Rel. light bend : Sun {source: DE441} Rel. lght bnd GM: 1.3271E+11 km^3/s^2 Small-body perts: Yes {source: SB441-N16} Atmos refraction: NO (AIRLESS) RA format : HMS Time format : CAL Calendar mode : Mixed Julian/Gregorian EOP file : eop.251212.p260310 EOP coverage : DATA-BASED 1962-JAN-20 TO 2025-DEC-12. PREDICTS-> 2026-MAR-09 Units conversion: 1 au= 149597870.700 km, c= 299792.458 km/s, 1 day= 86400.0 s Table cut-offs 1: Elevation (-90.0deg=NO ),Airmass (>38.000=NO), Daylight (NO ) Table cut-offs 2: Solar elongation ( 0.0,180.0=NO ),Local Hour Angle( 0.0=NO ) Table cut-offs 3: RA/DEC angular rate ( 0.0=NO ) ******************************************************************************* Initial IAU76/J2000 heliocentric ecliptic osculating elements (au, days, deg.): EPOCH= 2460891.5 ! 2025-Aug-04.0000000 (TDB) RMSW= n.a. EC= 6.139433723877776 QR= 1.356418237859906 TP= 2460977.98216112 OM= 322.1566409267227 W= 128.0097228929673 IN= 175.1130926962195 Equivalent ICRF heliocentric cartesian coordinates (au, au/d): X=-1.963256850951576E-01 Y=-3.196023732443091E+00 Z=-1.125678454066144E+00 VX=-1.385224954064197E-02 VY= 3.105097869615599E-02 VZ= 1.181192524474764E-02 Comet physical (GM= km^3/s^2; RAD= km): GM= n.a. RAD= n.a. M1= 12.5 M2= n.a. k1= 4.5 k2= n.a. PHCOF= n.a. Comet non-gravitational force model (AMRAT=m^2/kg;A1-A3=au/d^2;DT=days;R0=au): AMRAT= 0. DT= 0. A1= 4.368369102478E-8 A2= 1.595561385155E-8 A3= -5.178292989731E-9 Non-standard or simulated/proxy model: ALN= 1. NK= 0. NM= 2. NN= 0. R0= 1. ******************************************************************************* Date__(UT)__HR:MN S-O-T /r ********************************** $$SOE 2025-Oct-21 05:10 2.5913 /T 2025-Oct-21 05:20 2.5912 /T 2025-Oct-21 05:30 2.5912 /T 2025-Oct-21 05:40 2.5911 /T 2025-Oct-21 05:50 2.5912 /T 2025-Oct-21 06:00 2.5912 /T 2025-Oct-21 06:10 2.5913 /T $$EOE ******************************************************************************* Column meaning: TIME Times PRIOR to 1962 are UT1, a mean-solar time closely related to the prior but now-deprecated GMT. Times AFTER 1962 are in UTC, the current civil or "wall-clock" time-scale. UTC is kept within 0.9 seconds of UT1 using integer leap-seconds for 1972 and later years. Conversion from the internal Barycentric Dynamical Time (TDB) of solar system dynamics to the non-uniform civil UT time-scale requested for output has not been determined for UTC times after the next July or January 1st. Therefore, the last known leap-second is used as a constant over future intervals. Time tags refer to the UT time-scale conversion from TDB on Earth regardless of observer location within the solar system, although clock rates may differ due to the local gravity field and no analog to "UT" may be defined for that location. Any 'b' symbol in the 1st-column denotes a B.C. date. First-column blank (" ") denotes an A.D. date. CALENDAR SYSTEM Mixed calendar mode was active such that calendar dates after AD 1582-Oct-15 (if any) are in the modern Gregorian system. Dates prior to 1582-Oct-5 (if any) are in the Julian calendar system, which is automatically extended for dates prior to its adoption on 45-Jan-1 BC. The Julian calendar is useful for matching historical dates. The Gregorian calendar more accurately corresponds to the Earth's orbital motion and seasons. A "Gregorian-only" calendar mode is available if such physical events are the primary interest. NOTE: "n.a." in output means quantity "not available" at the print-time. 'S-O-T /r' = Sun-Observer-Target apparent SOLAR ELONGATION ANGLE seen from the observers' location at print-time. The '/r' column provides a code indicating the targets' apparent position relative to the Sun in the observers' sky, as described below: Case A: For an observing location on the surface of a rotating body, that body rotational sense is considered: /T indicates target TRAILS Sun (evening sky: rises and sets AFTER Sun) /L indicates target LEADS Sun (morning sky: rises and sets BEFORE Sun) Case B: For an observing point that does not have a rotational model (such as a spacecraft), the "leading" and "trailing" condition is defined by the observers' heliocentric ORBITAL motion: * If continuing in the observers' current direction of heliocentric motion would encounter the targets' apparent longitude first, followed by the Sun's, the target LEADS the Sun as seen by the observer. * If the Sun's apparent longitude would be encountered first, followed by the targets', the target TRAILS the Sun. Two other codes can be output: /* indicates observer is Sun-centered (undefined) /? Target is aligned with Sun center (no lead or trail) The S-O-T solar elongation angle is numerically the minimum separation angle of the Sun and target in the sky in any direction. It does NOT indicate the amount of separation in the leading or trailing directions, which would be defined along the equator of a spherical coordinate system. Units: DEGREES Computations by ... Solar System Dynamics Group, Horizons On-Line Ephemeris System 4800 Oak Grove Drive, Jet Propulsion Laboratory Pasadena, CA 91109 USA General site: https://ssd.jpl.nasa.gov/ Mailing list: https://ssd.jpl.nasa.gov/email_list.html System news : https://ssd.jpl.nasa.gov/horizons/news.html User Guide : https://ssd.jpl.nasa.gov/horizons/manual.html Connect : browser https://ssd.jpl.nasa.gov/horizons/app.html#/x API https://ssd-api.jpl.nasa.gov/doc/horizons.html command-line telnet ssd.jpl.nasa.gov 6775 e-mail/batch https://ssd.jpl.nasa.gov/ftp/ssd/horizons_batch.txt scripts https://ssd.jpl.nasa.gov/ftp/ssd/SCRIPTS Author : Jon.D.Giorgini@jpl.nasa.gov ******************************************************************************* !$$SOF COMMAND = '3I' QUANTITIES = '23' START_TIME = '2025-10-21 05:10' STEP_SIZE = '10 min' STOP_TIME = '2025-10-21 06:10'